Regional Weather Roundup
Issued by NWS

Home | Current Version | Previous Version | Text Only | Print | Product List | Glossary Off
Versions: 1 2 3 4 5 6 7 8 9 10 11 12 13 14 15 16 17 18 19 20 21 22 23 24 25 26 27 28 29 30 31 32 33 34 35 36 37 38 39 40 41 42 43 44 45 46 47 48 49 50

000
ASUS43 KTOP 282259
RWRKS

WEATHER ROUNDUP FOR KANSAS
NATIONAL WEATHER SERVICE GOODLAND KS
600 PM CDT TUE JUL 28 2015

NOTE:  "FAIR" INDICATES FEW OR NO CLOUDS BELOW 12,000 FEET WITH NO
SIGNIFICANT WEATHER AND/OR OBSTRUCTIONS TO VISIBILITY.

KSZ001>006-013>018-027>032-041>047-290000-
NORTHWEST KANSAS

CITY           SKY/WX    TMP DP  RH WIND       PRES   REMARKS
GOODLAND       SUNNY     84  42  22 NE13G21   30.08S
HAYS           SUNNY     88  63  42 N21       29.94S
HILL CITY      SUNNY     86  54  33 N18G24    29.99S
RUSSELL        SUNNY     89  71  55 N16       29.90R HX  95
$$

KSZ061>065-074>080-084>089-290000-
SOUTHWEST KANSAS

CITY           SKY/WX    TMP DP  RH WIND       PRES   REMARKS
DODGE CITY     MOSUNNY   86  66  51 N10       29.96S
ELKHART          N/A     83  58  42 NE12        N/A
GARDEN CITY    MOSUNNY   84  58  40 NE13      30.00S
GREAT BEND     MOSUNNY   93  70  46 N21       29.88R HX  99
LIBERAL        MOSUNNY   88  64  45 N16       29.97R
$$

KSZ066>073-081>083-090>101-290000-
SOUTHEAST KANSAS

CITY           SKY/WX    TMP DP  RH WIND       PRES   REMARKS
CHANUTE        SUNNY     93  72  50 S16G24    29.91R HX 101
COFFEYVILLE    SUNNY     93  73  52 S16G24    29.90S HX 102
HUTCHINSON     SUNNY    101  67  32 S20G25    29.85S HX 106
MEDICINE LODGE   N/A    100  69  36 S10       29.84S HX 106
NEWTON         SUNNY     99  70  39 S17G24    29.89F HX 105
PARSONS        SUNNY     92  74  55 S9G22     29.91S HX 101
WICHITA INTL   SUNNY     98  70  40 S22G29    29.85S HX 105
WICHITA JABRA  SUNNY     97  70  41 S23G29    29.86S HX 103
WINFIELD       SUNNY     95  73  48 S18G28    29.89S HX 104
$$

KSZ007>012-019>026-033>040-048>060-102>105-290000-
NORTHEAST KANSAS

CITY           SKY/WX    TMP DP  RH WIND       PRES   REMARKS
CONCORDIA      SUNNY     87  76  69 N20G26    29.87R HX  97
EMPORIA        SUNNY     97  70  41 S18G29    29.87S HX 103
LAWRENCE       SUNNY     95  71  45 S10       29.85F HX 102
MANHATTAN      SUNNY     99  73  43 S17G24    29.82S HX 109
OLATHE IND     SUNNY     94  71  47 S14G23    29.90R HX 101
OLATHE EXE     SUNNY     92  70  48 S10       29.88S HX  97
SALINA         MOSUNNY  101  69  35 S13G23    29.82S HX 107
TOPEKA BILLARD SUNNY     96  71  44 S16G23    29.84F HX 103
TOPEKA FORBES  SUNNY     97  71  42 S16G22    29.86R HX 104
$$


USA.gov is the U.S. government's official web portal to all federal, state and local government web resources and services.